Location: Rounton
(54.4000°N, 1.3500°W)
Time: 14:44:33
(UTC+00:00)

Vanguard 2 - Pass Details

Date: 01 December 2021
Orbit: 553 x 2936 km, 32.9° (Epoch: 23 January)

Event Time Altitude Azimuth Distance (km) Brightness Sun altitude
Rises 17:21:48 0° 240° (WSW) 3,927 13.0 -13.1°
Reaches altitude 10° 17:25:25 10° 220° (SW) 3,348 11.7 -13.6°
Maximum altitude 17:30:28 17° 184° (S) 3,353 11.0 -14.3°
Drops below altitude 10° 17:36:53 10° 151° (SSE) 4,469 11.3 -15.2°
Sets 17:43:05 0° 135° (SE) 5,968 11.8 -16.0°
